Back to catalog

STARLINK-32721

AliveCommunicationsVLEO
NORAD 62438·PAYLOAD·🇺🇸 United States

Launched Dec 29, 2024 from Vandenberg Space Force Base

Loading…

Next Passes (next 24 hours)

TLE

FreshSource: CelesTrak SupGP

Epoch: Sep 14, 2026, 22:33 UTC

1 62438C 24251G   26257.94006944 -.00085265  00000+0 -25178-2 0  2574
2 62438  53.1577 173.5526 0001289  92.4410 194.4236 15.34450122    19

Track STARLINK-32721 in real time with AllMySat

Download on the App Store